Wind_Speed
20 19 18 18 17 17 17 16 16 16 15 15 15 15 15 15 14 13 12 12 11 11 10 10 9 9 9 8 8 8 7 7 6 5 5 4 4 4 4 4 3 3 3 3 3 4 4 4 4 5 5 6 6 7 7 7 8 8 8 8 8 8 9 10 10 9 9 9 10 10 10 10 9 8 9 10 9 7 7 8 8 9 9 9 8
22 20 20 19 18 18 18 18 17 17 17 17 17 16 16 16 15 15 14 13 12 11 11 10 10 10 9 9 9 8 8 7 7 7 6 6 6 6 6 6 6 5 5 5 5 5 6 6 7 7 7 8 8 8 9 9 9 9 9 9 9 9 10 11 11 10 10 10 10 11 10 10 10 10 10 10 9 8 8 8 8 9 9 10 10
23 23 22 20 19 19 19 19 19 19 18 18 18 17 17 17 16 16 15 14 14 13 13 12 11 11 11 10 10 10 9 9 9 8 8 8 8 8 8 8 8 8 8 8 8 7 8 8 8 9 9 10 10 11 11 11 11 11 11 11 11 11 11 11 11 11 11 11 11 11 10 10 11 11 10 10 9 8 8 8 8 9 10 10 11
25 25 24 23 21 21 20 20 20 20 20 19 19 19 18 18 18 17 17 16 15 15 14 13 13 12 12 12 12 12 11 11 11 11 11 10 10 10 10 10 10 10 9 9 9 9 9 9 9 10 10 11 11 11 12 12 13 13 13 13 13 13 12 13 13 13 13 13 12 11 10 10 11 11 11 10 9 9 8 8 8 9 10 10 12
28 27 26 26 24 23 22 22 21 21 21 21 21 21 20 20 19 19 18 17 17 16 16 15 15 14 14 14 14 14 13 13 13 13 13 13 12 12 11 11 11 11 10 10 10 10 10 10 10 10 10 11 11 11 12 12 13 13 13 13 14 14 14 14 14 14 14 14 14 13 11 10 10 11 11 10 10 8 7 8 8 9 10 12 12
30 29 28 28 27 26 25 24 24 23 23 23 23 22 22 22 21 21 20 19 18 18 18 17 17 16 16 15 15 15 15 15 15 15 15 14 13 13 12 11 11 11 11 11 11 12 12 11 11 11 11 11 11 11 12 12 12 12 12 13 13 13 14 14 15 15 15 15 15 14 13 11 10 11 10 10 9 8 7 8 9 9 10 12 14
31 30 30 30 29 28 27 26 26 25 24 24 24 24 24 23 23 23 22 21 21 20 19 19 18 18 17 17 16 16 15 15 16 16 16 15 14 14 13 12 12 12 12 12 12 12 13 13 14 13 13 12 12 12 12 12 13 12 12 13 12 13 13 13 14 14 14 14 14 14 13 11 10 9 9 8 7 7 7 8 10 11 12 13 15
31 31 31 31 31 30 29 29 28 27 26 25 24 25 25 24 25 24 24 23 23 23 22 21 20 19 19 18 17 16 16 16 16 16 16 16 16 16 15 14 13 13 12 12 13 13 13 14 14 14 15 15 15 14 14 14 13 13 13 13 13 13 13 13 13 13 14 14 13 13 12 11 10 9 8 8 7 8 8 9 11 13 15 16 17
32 32 32 32 32 31 30 30 29 28 27 26 25 25 25 25 26 26 25 25 25 25 24 24 23 22 21 20 19 18 18 17 16 16 17 17 16 17 17 16 15 15 14 14 14 14 13 13 14 14 15 15 16 16 16 16 16 15 14 14 14 14 14 14 14 14 14 14 14 13 13 13 12 10 10 9 9 9 10 11 12 14 16 18 20
33 33 33 33 32 32 31 30 30 29 28 28 27 27 26 26 26 26 26 26 26 26 25 25 24 24 23 22 22 22 22 21 19 18 18 17 17 18 18 17 17 16 16 16 15 15 15 14 13 13 14 15 15 16 17 17 18 17 17 17 16 16 16 16 16 15 15 15 15 15 15 15 14 13 12 12 11 12 13 13 14 16 17 19 21
34 34 34 34 33 33 32 31 30 29 29 29 29 29 28 27 27 26 27 27 28 27 27 27 26 25 25 24 24 24 25 24 22 21 20 18 18 19 19 18 18 18 18 18 17 17 16 16 15 14 14 14 15 16 16 17 18 18 19 19 19 18 18 18 18 18 17 17 18 18 18 18 19 19 18 17 16 16 17 17 17 18 19 20 21
34 35 35 34 34 34 33 32 31 31 30 30 30 30 30 29 28 27 27 28 28 28 28 28 27 27 27 25 25 27 27 25 24 23 22 21 21 21 20 20 20 20 20 19 19 19 18 18 17 17 16 15 15 15 15 15 17 18 18 20 20 20 20 20 20 20 20 20 21 22 22 22 23 23 23 22 22 21 21 21 20 20 20 21 20
36 36 35 35 35 35 33 32 32 32 31 31 31 31 30 30 30 29 28 28 28 29 30 30 30 29 28 28 29 29 28 26 25 25 24 24 24 24 23 23 22 22 22 22 21 21 20 20 20 20 20 18 17 16 15 15 16 17 18 18 20 20 21 21 21 21 21 21 22 23 24 24 24 25 26 25 24 24 23 22 22 22 21 21 21
39 37 36 35 36 35 33 32 32 33 32 30 30 30 29 30 31 30 29 28 28 30 30 30 29 28 28 30 30 30 28 28 27 27 27 26 27 26 26 25 25 25 24 24 24 23 22 22 22 22 22 20 19 19 19 17 17 18 18 18 19 20 20 20 21 21 21 21 21 22 23 23 23 24 25 24 23 22 22 21 21 21 20 19 20
40 39 38 37 38 37 35 34 34 33 32 30 29 28 28 29 30 30 30 29 29 29 29 28 28 27 27 29 30 30 29 30 30 29 29 29 28 28 28 28 27 27 27 27 26 25 25 24 24 24 23 22 22 22 22 21 19 19 19 20 20 21 21 21 21 21 20 20 20 20 21 22 22 22 23 23 22 21 20 19 20 20 18 17 19
42 41 40 39 40 40 38 37 37 34 32 30 29 31 32 31 31 31 32 32 31 30 29 29 30 30 30 30 32 32 30 29 30 31 31 31 30 29 29 29 29 29 29 29 28 28 26 26 26 26 25 25 25 24 23 23 23 22 22 22 23 23 24 24 24 22 22 22 21 20 21 22 23 23 24 24 24 23 21 20 22 21 18 17 19
46 41 39 38 41 43 41 39 37 35 34 34 34 36 37 34 33 33 33 34 34 33 31 31 31 32 32 32 34 35 34 31 31 32 32 32 31 31 30 30 31 31 31 30 30 29 27 26 27 28 28 28 28 27 26 26 25 24 24 24 24 25 26 27 27 25 25 25 24 23 23 23 24 25 26 27 27 26 24 23 25 25 22 20 20
45 41 38 38 40 43 42 39 38 37 37 37 38 39 39 37 36 36 34 34 35 33 31 30 32 33 34 34 35 37 37 35 33 33 33 32 32 32 32 32 32 31 31 30 29 28 27 28 30 30 29 30 30 30 29 28 27 27 26 26 27 27 27 29 29 28 27 28 27 27 26 26 26 26 28 29 30 30 28 26 27 28 26 25 25
35 37 40 42 43 43 43 41 40 39 39 39 39 41 40 38 37 37 36 35 36 35 33 32 33 34 35 36 36 37 37 38 36 35 35 34 34 34 34 33 33 33 33 32 30 29 29 31 32 32 31 31 31 31 30 30 29 29 28 28 29 29 29 30 31 31 31 31 30 30 30 30 29 29 30 31 32 33 32 30 30 30 29 27 28
26 29 33 38 41 43 45 46 44 40 37 39 43 44 43 41 39 38 38 38 38 36 35 34 35 37 37 37 38 37 36 36 37 38 38 38 37 37 37 36 36 36 36 35 33 33 33 33 34 34 34 33 33 33 33 33 32 31 30 30 30 30 31 32 32 32 33 33 33 32 32 32 31 32 33 33 34 34 34 33 32 32 32 30 29
30 29 28 27 28 31 34 40 46 47 43 40 42 44 45 44 43 41 42 42 41 40 38 36 37 39 39 38 39 40 38 36 36 37 40 40 40 40 40 40 40 39 38 37 38 38 37 35 35 36 36 36 36 35 35 35 35 34 34 33 32 32 33 33 33 33 34 34 34 34 34 34 33 33 33 34 35 36 36 35 35 34 34 33 32
29 29 29 28 26 24 23 24 32 42 49 48 45 44 46 48 48 48 47 46 44 43 42 40 40 41 41 40 39 40 40 39 38 39 41 43 44 43 42 42 41 37 35 37 39 39 38 37 37 36 36 36 36 36 37 37 37 37 37 37 36 36 36 35 35 35 35 35 36 35 36 36 35 35 35 36 37 37 37 37 37 36 36 36 36
25 26 27 27 27 25 23 21 21 27 39 47 44 36 33 35 40 44 47 49 48 48 47 46 45 45 46 45 43 43 43 41 37 37 37 37 39 41 42 42 41 38 37 38 39 39 39 39 38 38 37 36 36 37 38 38 37 36 36 37 37 38 38 37 37 37 36 37 37 37 37 38 37 37 37 38 39 39 38 39 39 38 37 38 39
24 24 25 24 23 23 22 21 21 21 26 32 32 26 20 19 21 26 33 39 41 41 41 41 40 40 42 42 41 42 40 35 30 28 28 26 27 31 34 35 36 36 36 38 38 38 38 38 38 37 36 34 33 33 34 34 34 34 34 35 36 36 37 37 38 38 38 38 39 39 39 39 40 40 40 40 41 41 41 42 42 42 40 39 40
24 25 24 22 21 23 23 22 24 25 25 27 28 27 25 22 20 21 23 26 27 27 27 27 27 27 29 30 30 30 30 28 26 25 26 25 25 26 27 29 30 31 32 32 33 33 32 32 32 32 31 31 30 30 30 31 32 32 33 34 34 35 35 36 38 39 39 40 40 40 41 41 41 41 42 42 42 42 42 43 44 44 43 42 42
26 26 25 23 22 24 25 24 24 26 27 28 29 30 29 28 27 28 28 28 29 28 27 26 24 23 24 24 25 26 26 27 26 26 27 27 27 26 27 28 30 31 32 32 33 33 33 32 31 31 31 32 32 32 32 32 33 32 32 33 33 33 33 34 36 37 38 40 40 41 41 41 41 41 41 41 42 42 42 43 44 45 45 44 43
30 29 28 27 26 25 26 26 25 26 27 27 27 27 27 27 27 28 29 30 31 31 30 28 26 25 24 25 26 27 27 27 27 27 28 28 28 28 28 29 30 31 32 32 33 34 34 34 34 34 34 35 36 36 36 36 36 36 35 35 36 35 34 35 36 36 37 38 38 39 40 40 41 41 41 41 41 41 42 42 43 43 44 44 43
32 32 31 30 30 30 29 28 28 28 28 28 28 28 28 27 27 27 28 29 29 28 28 27 26 26 25 25 26 27 27 27 28 29 29 30 30 30 31 31 32 32 33 33 34 34 34 35 35 36 36 37 38 39 39 38 39 39 38 39 39 39 38 39 39 39 39 40 40 40 41 41 42 42 42 42 42 42 43 43 44 44 44 44 43
34 33 32 32 32 33 33 33 32 31 31 31 31 32 32 31 31 31 31 31 31 31 31 30 30 30 29 29 29 29 28 29 31 32 32 33 34 35 35 35 36 36 36 37 37 37 37 37 37 37 39 39 40 40 40 40 40 41 41 41 42 42 42 43 43 43 44 44 44 44 45 45 45 46 46 46 46 46 46 46 47 47 47 47 47
36 35 35 35 34 34 35 36 36 36 35 34 34 34 34 34 34 34 35 35 35 36 36 35 36 35 35 34 35 35 34 34 35 36 36 37 38 38 39 40 40 40 41 41 41 41 41 41 41 41 41 42 42 42 43 43 43 43 43 44 44 45 45 45 46 46 47 47 47 48 48 48 48 49 49 49 50 50 51 51 51 51 51 51 51
37 38 38 38 38 38 38 39 39 39 39 39 38 38 38 37 37 37 37 38 38 38 39 39 39 40 39 39 40 41 40 40 40 40 41 41 41 41 42 42 43 43 44 44 44 45 45 45 45 45 45 45 45 45 46 46 46 46 47 47 47 47 47 48 48 49 49 49 50 50 51 51 51 51 52 52 52 53 53 54 54 55 55 55 55
39 40 40 41 41 42 42 42 43 43 43 43 43 42 42 42 41 41 41 41 42 42 42 42 43 44 44 44 45 45 46 45 45 45 45 45 45 45 45 45 45 45 46 46 47 47 47 47 47 47 48 48 48 48 48 49 49 49 50 50 51 51 51 51 52 52 52 53 53 54 54 54 54 54 55 55 55 55 56 56 57 57 58 58 58
41 41 42 42 43 43 44 45 45 45 46 46 46 47 47 46 46 46 46 46 47 47 47 47 47 48 48 48 48 49 50 50 49 49 49 48 48 48 48 48 48 48 48 48 49 49 50 50 50 50 50 50 50 50 51 51 52 52 53 54 54 54 54 55 55 55 55 56 56 57 58 58 58 59 59 59 59 59 59 60 60 61 61 61 61
42 43 43 44 44 44 45 46 46 46 47 48 48 49 49 49 49 49 49 50 50 51 51 51 51 51 51 51 51 51 52 52 52 52 52 52 51 51 51 50 50 50 50 50 51 51 52 52 52 53 53 53 53 54 54 54 55 55 56 56 57 57 58 58 59 59 59 60 60 61 61 62 62 63 63 63 63 63 63 64 64 64 65 65 65
43 44 44 45 45 46 46 47 47 47 47 47 48 49 49 49 49 49 49 49 49 50 51 52 52 52 52 51 51 51 51 52 52 53 53 53 53 53 52 52 53 53 52 53 53 54 54 54 55 55 56 56 56 57 58 58 58 59 59 60 60 61 61 62 62 63 63 64 65 65 66 67 67 67 68 68 68 68 68 69 69 69 69 69 69
44 44 44 44 44 45 46 47 47 48 48 48 48 49 49 50 50 50 49 49 48 48 48 48 49 50 51 51 50 50 50 50 51 52 53 53 53 53 53 53 54 54 54 55 55 55 56 56 57 58 58 59 59 60 61 62 62 63 63 64 64 65 65 66 66 66 67 68 69 69 70 71 71 72 73 73 73 73 73 74 74 74 74 74 74
44 44 44 44 43 43 43 44 45 46 47 48 49 49 49 50 50 51 51 51 50 50 49 48 48 48 49 50 50 50 50 51 51 51 51 52 53 54 54 55 55 55 55 56 56 57 57 58 59 60 60 61 61 62 63 63 64 65 66 67 68 69 69 70 70 71 71 72 73 73 74 74 75 76 76 77 77 77 78 78 78 79 79 79 79
45 46 46 47 46 46 45 45 45 45 45 46 47 48 48 49 49 50 50 51 51 51 52 51 50 50 50 50 50 51 52 52 53 52 52 52 53 53 54 55 56 57 58 58 58 58 59 59 60 61 62 62 63 64 64 65 66 66 67 67 68 69 70 71 72 73 74 75 76 76 77 78 78 79 80 80 80 81 81 81 82 82 82 82 83
46 47 47 47 48 48 47 47 47 47 47 46 46 47 47 47 48 48 48 49 49 50 51 51 51 52 51 51 51 52 53 53 54 54 54 55 55 55 55 56 57 58 58 59 60 61 62 62 63 63 64 65 66 66 67 68 69 69 70 70 71 71 72 72 73 74 75 76 77 78 79 80 81 82 82 83 83 84 84 84 84 84 85 85 85
47 47 47 47 47 48 48 48 48 48 48 48 48 48 47 47 48 48 48 48 48 49 49 50 50 51 51 50 51 53 53 54 55 55 55 56 57 57 58 59 59 60 60 60 61 62 63 64 65 66 66 67 68 69 69 70 71 72 72 73 74 74 75 75 76 76 77 77 78 78 79 80 81 82 83 84 85 85 86 86 87 87 87 87 87
49 49 49 49 48 48 48 48 48 48 49 49 49 49 49 49 49 49 49 49 49 49 49 50 50 50 49 49 51 52 53 53 54 55 56 57 57 58 58 59 60 61 61 61 62 63 63 64 65 65 66 67 68 69 70 71 72 72 73 74 74 75 76 76 77 77 78 78 78 78 79 79 80 80 81 82 83 84 85 86 86 87 87 88 88
52 52 52 51 50 50 50 49 49 49 50 50 50 50 50 50 50 50 50 51 51 51 51 51 52 51 50 50 51 52 52 53 54 54 55 56 57 57 58 59 60 60 61 61 62 63 63 64 65 65 66 67 67 68 69 70 71 72 72 73 74 75 76 77 78 78 79 79 79 79 79 79 80 80 81 81 82 83 83 84 85 85 86 87 88
55 54 54 54 53 53 52 51 51 51 51 51 51 51 52 52 52 51 52 52 52 52 53 53 53 53 52 51 52 53 54 54 54 55 55 56 56 57 58 59 60 60 61 61 62 63 64 65 65 66 67 67 68 68 69 70 71 71 72 72 73 74 75 76 77 78 79 79 80 80 81 81 81 81 81 82 82 83 83 84 84 85 85 86 87
57 56 56 56 56 55 55 54 54 53 53 53 53 53 53 53 53 53 53 53 53 54 54 55 55 54 54 54 54 54 55 55 56 56 57 57 57 58 58 59 60 60 61 61 62 63 64 65 66 66 67 67 68 69 69 70 70 71 71 71 72 72 73 73 74 75 76 77 78 78 79 80 80 81 82 82 83 84 84 85 85 86 86 87 88
58 58 57 56 56 55 55 55 55 55 54 54 54 54 54 54 54 54 54 54 54 54 54 55 55 55 55 55 55 55 56 56 57 57 58 58 59 59 59 60 60 61 61 62 62 62 63 64 64 65 66 67 67 68 69 69 70 71 71 71 72 72 72 72 73 74 75 76 77 78 78 79 80 81 82 83 84 85 86 86 87 88 89 89 90
59 59 58 58 57 56 55 55 55 55 55 55 55 55 55 55 55 55 55 55 55 55 55 55 55 55 55 55 55 55 56 56 57 57 57 58 58 59 59 59 60 60 61 61 62 62 63 63 64 64 65 66 67 67 68 69 70 70 71 72 72 73 73 74 74 75 76 77 78 78 79 80 80 81 82 83 84 85 86 87 87 88 89 90 91
61 60 60 59 58 58 57 57 57 57 57 56 56 56 56 56 56 56 56 56 56 56 57 57 57 57 57 57 57 57 57 57 57 58 58 58 59 59 60 60 61 61 62 62 63 64 64 65 65 66 66 67 67 68 68 69 69 70 71 71 71 71 72 73 74 74 75 76 77 77 78 79 80 81 82 84 85 86 86 87 88 89 89 90 90
63 62 61 60 60 59 59 59 58 58 58 57 56 56 56 56 56 56 55 55 55 56 56 57 57 57 57 57 57 57 58 58 59 59 59 60 60 60 61 61 62 63 63 63 64 64 65 65 65 66 66 66 67 67 67 67 67 68 68 68 67 67 68 68 69 70 71 72 74 75 77 78 79 80 82 83 84 85 86 87 87 88 89 89 90
63 62 61 61 60 60 59 58 58 58 57 56 56 55 55 55 55 55 54 54 54 54 55 55 55 56 56 56 56 56 57 58 58 59 59 60 60 60 60 61 61 62 62 62 62 62 63 63 63 63 63 63 64 64 64 64 64 64 64 64 64 64 65 66 67 68 70 71 73 74 76 77 78 79 80 81 82 83 85 86 87 88 88 89 90
62 62 61 61 60 59 58 57 57 57 56 56 55 54 54 54 54 54 53 53 53 53 53 54 54 54 54 55 55 55 56 56 57 57 58 58 58 59 59 59 59 59 59 59 59 59 59 59 60 60 60 60 60 61 61 61 61 61 62 63 64 64 65 67 69 70 71 73 74 76 77 79 80 81 82 83 84 86 87 88 89 90 90 91 92
62 61 61 60 59 58 57 56 56 56 55 54 54 53 53 52 52 52 52 52 52 52 53 53 53 53 53 54 54 54 55 55 55 55 56 56 56 55 55 55 55 55 56 56 56 57 57 58 58 58 58 59 59 59 60 60 61 61 63 65 66 67 68 70 72 73 75 77 78 79 80 80 80 80 80 80 80 81 80 80 81 81 82 82 83
Wind_Direction
220 218 216 214 216 219 221 220 218 217 218 220 221 220 221 222 221 221 222 224 228 228 228 231 234 239 245 250 254 254 255 258 257 253 253 252 252 256 263 266 266 270 275 277 280 287 291 290 287 281 277 274 273 275 276 279 282 283 285 284 280 277 277 276 275 274 275 276 276 278 281 284 288 289 289 295 300 295 287 286 284 284 288 293 291
223 222 222 219 218 220 222 222 222 222 221 222 224 223 225 226 225 224 224 225 229 232 234 234 235 236 237 241 247 251 253 255 258 259 260 261 263 265 270 273 274 274 276 277 277 280 284 289 290 289 287 285 282 280 280 279 279 281 282 283 283 282 283 284 286 285 283 282 282 282 284 285 286 286 286 290 296 295 287 283 283 282 284 287 286
227 226 225 223 221 223 225 225 226 226 226 227 227 227 227 229 229 228 227 227 228 231 234 236 238 240 239 240 242 245 247 250 254 258 260 263 265 268 271 274 277 278 279 279 279 279 279 281 284 286 286 285 284 283 284 284 282 281 281 281 282 283 283 285 287 288 288 288 287 286 287 286 285 285 286 286 287 285 280 277 275 274 274 274 277
227 229 229 227 224 224 226 228 230 230 231 231 232 232 232 231 232 231 230 230 230 231 233 234 236 239 242 245 246 248 250 251 253 255 257 261 265 268 271 274 276 278 279 280 280 279 278 277 278 280 282 283 284 285 285 285 285 284 283 282 282 282 281 281 282 284 285 286 285 286 286 284 281 282 283 281 277 273 271 268 263 263 268 270 275
223 226 229 229 227 226 226 227 230 232 234 234 235 236 236 235 236 235 235 234 232 233 233 233 235 237 240 244 247 250 252 254 256 256 256 258 261 265 269 271 273 274 275 277 279 280 280 278 278 279 281 283 286 288 288 287 287 287 287 287 285 284 282 281 280 281 282 284 286 287 286 281 275 275 277 277 274 269 265 262 258 260 270 277 284
223 223 226 228 229 228 228 228 229 230 232 235 236 237 238 238 239 239 240 239 238 237 237 236 235 236 238 242 246 249 253 256 257 258 258 257 258 260 261 262 264 268 271 273 276 278 280 279 278 279 282 284 286 287 289 291 291 293 293 292 291 289 287 285 284 283 283 284 286 287 287 283 276 274 274 274 271 266 260 260 262 266 274 283 291
226 225 226 227 228 229 229 230 231 230 231 233 236 238 240 240 241 241 242 243 243 242 241 241 240 239 239 241 244 248 252 256 258 259 259 258 257 256 256 256 257 261 266 270 272 275 275 276 277 278 279 282 283 285 288 291 294 296 297 297 297 294 291 289 287 286 286 285 286 288 289 288 284 280 278 274 268 265 264 267 273 279 284 289 294
230 229 228 229 230 230 230 231 232 234 234 234 236 238 240 242 243 244 244 245 246 246 245 245 244 243 243 243 245 248 251 256 259 259 259 257 256 257 258 259 259 260 263 266 269 271 272 272 272 274 276 277 279 282 284 287 290 293 295 296 295 294 292 290 288 287 286 286 287 288 290 290 289 287 286 281 274 272 272 276 283 289 294 298 300
232 232 231 231 232 232 232 233 234 236 237 238 239 240 241 241 243 245 245 246 247 248 249 249 248 248 248 248 248 248 250 253 254 255 256 256 256 258 260 261 263 263 264 265 266 268 270 271 272 273 275 275 276 277 278 279 281 284 286 288 289 289 289 288 287 286 285 285 286 287 288 289 289 289 288 285 281 279 280 283 287 290 294 298 300
234 234 234 234 234 235 235 235 236 237 239 240 242 243 243 243 244 245 247 247 248 249 251 252 252 251 251 251 251 251 250 250 249 251 255 256 256 258 260 261 263 265 266 267 268 268 269 270 272 273 274 276 276 276 275 275 275 275 275 276 277 280 282 283 284 284 285 286 285 286 286 287 288 288 287 285 284 283 283 285 286 287 290 293 296
237 236 235 235 236 236 236 237 238 238 239 240 242 243 244 244 245 246 248 248 249 249 250 252 253 253 253 252 252 251 252 251 251 251 252 254 256 258 260 261 262 263 264 265 267 270 271 272 272 272 271 272 274 275 276 276 274 273 272 271 270 270 272 275 277 279 281 282 283 283 283 284 286 287 286 285 284 284 283 283 282 283 285 288 291
237 238 238 237 237 238 237 237 237 238 239 240 242 243 245 245 246 246 247 249 250 250 251 251 251 252 253 253 253 253 254 255 255 254 253 253 254 256 258 260 261 262 263 264 266 267 269 272 273 273 271 270 271 273 275 276 276 275 275 274 272 270 269 270 271 272 274 275 277 279 279 280 282 283 284 284 284 283 283 282 282 281 281 282 286
237 239 240 239 238 239 239 240 240 240 240 241 242 243 245 247 248 247 248 250 251 252 252 252 252 252 253 253 252 254 257 257 257 256 255 253 254 255 255 257 259 261 263 264 265 266 268 270 271 273 273 273 273 273 272 271 274 274 273 272 274 274 273 272 272 271 271 271 272 275 276 278 279 280 282 282 283 283 282 282 282 281 280 280 282
237 236 239 241 241 240 239 241 243 243 243 244 245 247 248 250 251 250 249 249 250 252 253 253 255 257 258 258 257 258 259 258 256 257 256 254 254 255 256 257 257 259 261 263 265 266 267 267 268 270 272 274 276 275 272 268 270 272 271 270 272 272 273 273 272 272 273 274 275 277 278 279 280 281 282 282 283 284 284 284 284 282 283 283 283
238 234 234 237 239 239 238 238 240 241 242 243 246 247 248 249 250 250 249 248 249 251 253 255 257 257 258 261 262 261 259 258 257 257 257 256 256 257 258 259 260 260 260 261 262 263 265 266 266 267 269 271 271 271 272 271 270 270 271 271 271 270 271 271 271 272 274 275 276 278 280 282 283 283 284 285 285 286 286 288 287 286 287 288 286
238 237 234 234 235 236 236 237 239 240 241 241 242 244 244 243 245 246 246 245 246 247 248 251 255 254 253 256 258 258 257 258 259 259 259 259 259 259 260 261 262 262 262 262 262 261 262 265 265 265 265 266 266 265 267 267 267 267 267 269 270 271 272 271 270 271 273 273 273 274 277 280 283 284 285 285 285 285 286 288 287 285 284 284 284
238 238 234 233 236 236 234 235 236 238 239 240 240 240 240 238 239 242 242 241 242 242 243 248 253 253 252 253 256 257 256 256 257 259 261 261 261 261 261 261 262 263 265 266 266 264 265 267 266 265 264 264 265 264 263 263 263 263 264 266 269 271 272 273 272 272 272 272 273 273 273 274 277 280 282 283 283 283 284 285 285 284 283 281 279
235 236 233 232 234 235 234 235 236 237 238 239 239 239 240 241 241 242 242 242 242 242 242 246 252 253 252 251 253 256 258 257 257 259 260 261 262 262 262 262 262 263 264 264 264 265 267 266 266 267 267 266 265 265 263 263 262 262 262 264 265 267 270 273 274 274 273 273 273 273 272 270 271 273 275 277 279 280 281 281 281 283 284 284 282
237 239 240 239 239 237 235 235 237 238 241 243 243 242 242 243 244 246 245 243 243 243 243 246 249 251 253 252 250 253 258 258 258 259 260 261 261 262 262 263 263 263 263 263 262 263 264 262 263 267 269 268 266 266 266 266 265 264 264 264 265 265 266 268 271 272 273 273 273 273 273 274 274 274 273 274 276 277 279 279 279 280 281 283 283
255 253 248 245 243 241 238 236 236 238 240 243 244 243 242 242 244 246 246 244 243 241 241 244 246 247 250 251 248 250 256 258 257 259 261 262 262 261 262 264 264 263 263 262 261 262 262 262 263 266 269 268 267 267 268 269 268 267 266 265 266 266 265 266 268 269 271 273 274 273 273 273 275 276 276 276 276 277 278 279 279 280 281 281 281
268 268 264 257 252 250 247 243 239 238 238 240 243 243 243 244 244 244 244 244 244 243 240 240 242 244 247 248 248 250 255 258 257 257 259 263 264 262 262 263 263 262 262 261 260 260 261 262 265 267 269 269 268 268 268 269 269 270 269 268 267 266 266 266 267 268 270 271 272 272 272 272 272 274 275 276 276 277 278 279 279 280 280 280 281
267 267 267 266 266 266 266 262 252 244 241 242 246 249 250 250 250 248 247 246 245 244 243 242 244 247 249 251 251 252 255 257 259 261 261 263 263 262 262 263 262 260 259 259 258 257 258 260 262 265 268 269 269 268 268 268 269 270 270 270 269 268 267 267 267 268 269 269 270 270 271 271 270 271 273 274 274 276 278 278 278 279 280 280 280
264 264 263 264 266 267 267 269 268 255 242 238 240 246 252 253 250 246 243 243 244 246 247 248 249 250 251 252 253 253 253 255 258 260 260 259 258 257 256 257 258 258 259 260 261 261 260 261 261 262 264 266 267 267 268 268 269 270 270 270 270 270 269 269 269 268 267 268 268 269 270 270 270 271 271 272 273 275 277 277 277 278 279 280 280
263 263 264 263 262 261 258 252 249 247 238 229 228 233 241 246 242 236 233 234 237 239 241 242 243 243 243 244 246 246 246 245 247 250 252 253 254 252 251 251 253 255 256 259 261 262 261 261 260 261 261 262 263 263 264 265 266 268 270 270 271 270 270 271 271 270 268 267 267 267 268 270 271 272 272 272 274 275 276 277 278 278 277 278 278
266 263 264 264 258 252 248 242 237 236 234 232 232 238 245 248 246 240 235 233 231 232 234 235 236 235 235 235 236 237 238 239 243 248 252 254 256 256 256 255 255 255 255 256 256 257 257 257 257 257 259 261 261 262 263 264 265 267 268 270 270 271 271 271 271 271 271 270 268 268 268 269 271 272 274 274 275 276 276 277 278 279 279 279 279
262 262 261 262 261 256 253 250 246 242 241 241 243 247 251 252 250 247 247 247 247 249 252 253 252 250 247 245 244 246 247 250 252 256 258 258 259 261 262 261 261 260 260 260 260 261 261 262 262 262 264 265 266 266 266 267 268 268 269 270 271 272 273 273 272 273 273 272 271 270 269 270 271 273 275 276 276 277 278 278 278 279 279 279 280
255 260 261 260 261 262 261 260 258 255 252 251 250 251 253 253 252 251 251 252 253 256 259 261 260 258 255 252 251 251 253 255 257 258 259 260 261 262 263 263 263 264 264 264 264 264 265 266 267 267 267 267 267 266 266 267 268 269 270 271 272 273 273 273 273 273 273 273 272 272 272 272 272 273 275 276 277 278 278 279 279 279 279 279 279
254 257 260 260 261 262 263 263 263 261 260 259 258 257 255 254 253 252 252 253 254 256 258 260 261 261 260 258 257 256 256 258 259 259 260 262 263 263 264 265 266 267 267 268 268 268 267 267 267 268 267 267 267 267 267 268 270 271 271 272 272 273 273 272 272 272 272 272 272 273 273 273 273 274 275 276 276 277 277 277 278 279 279 279 278
255 255 256 257 258 260 262 264 264 264 263 262 261 261 260 258 257 256 256 256 257 258 259 260 260 260 261 261 262 261 260 261 261 262 263 263 264 264 264 264 265 266 267 268 268 269 269 269 268 268 269 269 269 269 270 270 271 272 273 273 273 273 273 273 272 272 272 272 272 272 272 272 273 274 274 275 276 276 276 276 276 277 278 278 278
256 256 256 256 256 256 257 259 261 263 263 262 262 262 262 261 261 260 259 259 259 260 261 262 263 263 263 264 264 264 263 262 262 263 263 263 263 263 264 264 264 265 265 266 267 268 268 269 269 269 270 270 271 272 272 273 273 274 274 274 274 275 275 274 274 273 273 272 272 272 272 273 273 273 274 274 275 276 276 276 277 277 277 277 278
255 256 256 256 256 256 256 256 258 259 260 261 261 262 262 262 262 262 262 262 261 261 262 263 264 264 265 266 267 267 267 266 265 264 264 264 263 263 263 263 263 264 264 265 266 267 268 268 268 269 269 270 271 271 272 273 273 274 274 275 275 275 275 275 275 274 274 274 274 274 274 274 274 275 275 275 275 276 276 277 277 277 277 276 277
255 255 256 256 256 256 257 257 258 258 259 259 260 260 260 261 261 262 262 263 262 262 261 262 262 263 264 265 266 267 267 267 267 266 266 265 265 265 264 264 263 263 264 264 265 266 266 267 268 268 268 269 269 270 270 271 271 272 272 273 273 274 274 274 275 275 275 275 276 276 276 276 276 277 277 277 277 277 277 277 277 277 277 277 277
257 256 256 256 256 256 256 256 257 258 259 259 259 259 259 259 259 259 260 261 262 262 262 262 262 262 262 262 263 264 266 267 267 267 267 266 266 266 266 265 265 264 264 264 264 265 265 265 266 267 267 268 269 269 269 270 270 271 271 272 272 273 274 274 275 275 276 276 276 277 277 277 278 278 278 278 278 278 278 278 278 279 279 279 279
260 259 257 256 256 256 256 256 256 257 257 259 259 260 260 260 260 260 260 260 261 262 264 264 264 264 263 263 263 263 264 265 266 266 267 267 267 267 267 267 267 266 265 265 265 265 265 265 265 266 266 267 268 268 269 269 270 271 271 272 273 273 274 274 275 275 276 276 276 277 277 277 277 278 278 278 279 279 279 279 279 279 279 279 279
263 262 261 260 258 257 256 256 256 256 256 257 258 259 261 261 262 262 262 262 262 262 263 265 266 266 265 265 265 264 264 264 264 265 266 266 267 267 267 267 267 267 267 267 267 266 266 266 267 267 267 267 268 268 269 269 270 271 271 272 273 273 274 274 275 275 276 276 276 276 277 277 277 277 277 278 278 278 278 278 278 278 278 278 278
262 262 262 262 262 261 260 259 258 258 258 258 258 258 259 260 262 263 263 263 264 263 263 263 264 266 266 266 266 266 265 265 264 263 264 265 266 267 267 267 267 267 267 268 268 269 269 269 269 269 269 269 269 269 269 270 270 271 271 272 273 273 273 274 274 275 275 276 276 276 277 277 277 277 277 277 278 278 278 278 278 278 278 278 278
259 260 260 261 262 262 263 263 262 262 262 261 261 261 261 261 261 262 263 264 264 265 264 263 263 264 265 266 267 267 268 267 267 266 265 265 265 266 267 268 268 268 268 268 268 269 269 270 270 271 271 271 271 271 271 272 272 272 272 272 272 273 273 273 274 274 275 275 276 276 276 277 277 277 277 277 277 278 278 278 278 278 278 278 278
258 259 259 260 261 262 262 263 263 264 264 263 263 264 264 263 263 263 263 263 264 265 265 265 264 264 264 265 266 267 268 268 268 269 269 268 268 267 267 268 268 268 269 270 270 270 271 271 271 272 272 272 273 273 273 274 274 274 274 274 274 274 274 274 274 274 274 274 275 275 276 276 276 277 277 277 277 277 277 277 277 277 278 278 278
259 259 260 261 261 262 262 262 263 263 263 264 264 264 264 264 264 264 264 264 264 264 264 265 265 265 265 265 266 267 267 268 268 268 269 270 270 271 271 271 270 270 270 270 271 271 271 272 272 273 273 274 274 274 274 274 275 275 275 276 276 276 276 275 275 275 274 274 274 275 275 275 275 276 276 276 276 276 276 277 277 277 277 277 277
259 260 260 261 261 262 262 262 263 263 263 263 264 264 264 264 264 265 265 265 265 265 265 265 265 265 265 266 266 267 268 268 268 269 269 269 270 270 271 272 272 273 273 273 273 273 273 273 273 273 274 275 275 276 276 276 276 277 277 277 277 277 277 277 277 277 277 277 276 276 275 275 275 275 275 275 275 275 275 275 275 275 276 276 276
259 260 260 260 261 261 262 262 263 264 264 264 264 265 265 265 265 266 266 266 267 267 267 267 267 267 266 267 267 268 268 269 269 270 270 271 271 271 272 272 272 272 273 274 274 275 275 275 275 275 275 275 275 276 276 276 277 277 278 278 278 279 279 279 279 279 279 279 279 278 278 278 277 276 276 276 275 275 275 275 275 275 275 275 275
260 260 260 260 261 261 261 262 263 263 264 265 265 266 266 266 266 267 267 267 268 268 269 269 269 269 269 270 270 271 271 271 271 271 271 272 272 273 273 273 274 274 274 274 275 275 276 276 276 276 276 276 276 276 276 276 276 276 277 277 277 278 278 278 279 279 279 279 280 280 280 279 279 279 279 278 278 278 277 277 277 276 276 276 276
259 259 260 260 261 261 261 261 261 262 263 263 264 265 266 266 267 267 267 268 269 269 269 270 270 270 270 270 271 272 272 273 273 273 273 273 274 274 274 274 274 274 275 275 275 276 277 277 277 277 277 277 277 277 277 278 277 277 277 277 277 277 277 277 278 278 279 279 279 279 279 280 280 280 281 281 280 280 280 280 279 279 279 278 278
260 260 260 260 260 261 261 261 261 261 261 262 262 263 264 265 265 266 267 267 268 269 269 270 270 270 270 270 270 271 271 272 273 273 273 274 274 274 275 275 275 276 276 275 275 276 276 277 277 277 278 278 278 278 278 278 278 278 278 278 278 278 278 278 278 279 279 278 278 279 279 279 280 280 280 281 281 281 281 281 281 281 281 280 280
262 262 261 261 260 260 260 260 260 260 260 261 261 261 262 263 264 265 266 267 267 268 268 269 269 270 270 270 270 270 270 271 272 272 273 273 273 274 274 275 275 275 276 276 276 276 276 276 276 276 277 277 277 277 278 278 278 278 278 278 278 279 279 279 279 279 279 279 279 279 279 280 280 280 280 280 280 280 280 280 281 281 280 280 280
263 263 262 262 262 261 261 261 261 261 262 262 262 262 262 263 264 265 265 266 267 267 267 268 269 269 270 270 270 270 270 270 271 271 271 272 273 273 274 274 275 275 275 276 276 276 276 276 277 277 277 277 277 277 277 277 277 278 278 278 279 279 280 279 279 279 280 280 280 280 280 281 281 281 281 280 280 280 280 280 279 279 279 279 279
262 262 262 262 262 263 263 263 263 263 264 264 264 265 265 265 265 266 266 267 267 267 268 268 269 269 270 270 271 271 271 271 271 271 271 272 272 272 273 274 274 274 275 275 276 276 276 276 276 276 276 277 277 277 277 277 277 278 278 278 279 279 279 279 279 280 280 281 281 281 281 281 281 281 282 282 281 281 281 281 280 280 279 279 279
261 261 261 261 261 262 262 263 264 265 265 266 266 267 267 267 268 268 268 268 269 269 270 270 270 270 271 271 271 272 272 272 272 272 272 272 273 273 273 273 274 274 274 275 275 275 275 276 276 276 276 277 277 277 278 278 279 279 279 279 279 279 280 280 281 281 281 282 282 282 282 282 282 282 282 281 281 281 281 281 280 280 280 280 280
260 260 261 261 261 261 262 263 264 265 266 267 267 268 268 269 269 269 269 270 270 270 271 271 272 272 272 272 272 273 273 273 273 273 274 274 274 274 274 274 274 274 275 275 275 275 275 276 276 277 277 278 278 278 278 279 279 279 280 280 280 280 281 282 283 283 284 285 285 284 284 284 283 283 283 282 282 282 281 281 281 280 280 280 280
259 259 260 260 261 261 262 263 264 265 266 267 267 268 269 270 270 270 271 271 271 271 271 271 272 272 273 273 273 274 274 274 274 274 274 275 275 275 275 275 276 276 276 276 276 277 277 278 278 278 278 279 279 279 279 279 280 280 281 281 282 282 283 284 285 285 286 286 286 286 286 286 285 285 285 284 283 283 282 281 281 280 279 279 278
257 258 258 259 260 261 261 262 263 264 265 266 267 268 269 269 270 270 271 271 272 272 272 272 273 273 273 273 274 274 274 274 274 274 275 275 275 276 276 276 277 277 277 278 278 278 279 279 279 279 280 280 280 280 280 280 281 282 282 283 284 285 285 286 287 288 288 289 289 288 288 287 287 286 285 285 284 284 284 283 283 282 282 281 281
Height
5943 5945 5946 5948 5949 5951 5952 5953 5954 5955 5956 5957 5957 5958 5959 5960 5961 5962 5963 5964 5965 5965 5966 5967 5967 5968 5969 5969 5970 5971 5971 5972 5972 5972 5973 5973 5973 5974 5974 5974 5974 5974 5974 5974 5975 5975 5975 5975 5975 5975 5975 5975 5974 5974 5974 5974 5974 5974 5974 5974 5973 5973 5973 5973 5972 5972 5973 5973 5972 5972 5971 5971 5970 5970 5969 5969 5969 5969 5969 5969 5969 5968 5968 5967 5966
5942 5943 5945 5946 5948 5949 5951 5952 5953 5954 5955 5955 5956 5957 5958 5959 5960 5961 5961 5962 5963 5964 5965 5965 5966 5967 5968 5968 5969 5970 5970 5971 5971 5972 5972 5973 5973 5974 5974 5974 5974 5974 5974 5974 5974 5974 5974 5974 5974 5974 5974 5974 5974 5974 5974 5974 5974 5974 5974 5973 5973 5973 5973 5972 5972 5972 5972 5972 5971 5971 5970 5969 5969 5969 5969 5969 5968 5968 5968 5969 5969 5968 5967 5967 5966
5940 5941 5943 5945 5946 5947 5949 5950 5951 5952 5953 5954 5955 5956 5957 5958 5959 5959 5960 5961 5962 5963 5964 5964 5965 5966 5967 5967 5968 5968 5969 5969 5970 5971 5971 5972 5973 5973 5973 5973 5974 5974 5974 5973 5973 5973 5973 5973 5973 5973 5974 5974 5973 5973 5973 5973 5973 5973 5973 5973 5972 5972 5972 5972 5971 5971 5971 5971 5971 5970 5970 5969 5968 5968 5968 5968 5968 5968 5968 5968 5968 5967 5966 5966 5965
5938 5940 5941 5943 5944 5945 5947 5948 5949 5950 5952 5953 5954 5955 5956 5957 5957 5958 5959 5960 5961 5962 5962 5963 5964 5965 5966 5967 5967 5967 5968 5968 5969 5969 5970 5971 5971 5972 5972 5972 5973 5973 5973 5973 5973 5973 5973 5973 5973 5973 5973 5973 5973 5973 5973 5973 5972 5972 5972 5972 5972 5971 5971 5971 5970 5970 5970 5969 5969 5969 5968 5968 5968 5967 5967 5967 5966 5967 5967 5967 5967 5966 5966 5965 5965
5936 5938 5940 5941 5942 5944 5945 5946 5947 5948 5950 5951 5952 5953 5954 5955 5956 5957 5958 5959 5960 5960 5961 5962 5963 5964 5964 5965 5966 5966 5967 5967 5968 5968 5968 5969 5970 5970 5971 5971 5972 5972 5972 5972 5972 5972 5972 5972 5972 5972 5972 5972 5972 5972 5972 5972 5972 5971 5971 5971 5971 5971 5970 5970 5970 5969 5969 5968 5968 5967 5967 5967 5967 5967 5966 5966 5966 5966 5966 5966 5966 5966 5965 5964 5964
5934 5936 5938 5939 5941 5942 5943 5944 5945 5946 5947 5949 5950 5951 5952 5954 5955 5956 5956 5957 5958 5959 5960 5961 5961 5962 5963 5963 5964 5965 5965 5966 5966 5967 5967 5968 5968 5969 5969 5970 5970 5970 5971 5971 5971 5971 5971 5971 5971 5971 5971 5971 5971 5971 5971 5971 5971 5971 5971 5970 5970 5970 5970 5969 5969 5968 5968 5968 5967 5966 5966 5966 5966 5966 5966 5966 5966 5966 5966 5966 5965 5965 5965 5964 5964
5933 5935 5936 5937 5938 5940 5941 5942 5943 5944 5945 5947 5948 5949 5950 5952 5953 5954 5955 5956 5957 5957 5958 5959 5960 5961 5961 5962 5962 5963 5964 5964 5965 5965 5966 5967 5967 5968 5968 5968 5968 5969 5969 5969 5969 5969 5970 5970 5970 5970 5970 5970 5970 5970 5970 5970 5970 5970 5970 5970 5969 5969 5969 5968 5968 5968 5967 5967 5967 5966 5966 5966 5966 5966 5966 5966 5966 5966 5966 5966 5965 5965 5964 5964 5963
5931 5932 5934 5935 5936 5937 5939 5940 5941 5942 5944 5945 5946 5947 5948 5950 5951 5952 5953 5954 5955 5956 5956 5957 5958 5959 5960 5961 5961 5962 5962 5963 5963 5964 5964 5965 5966 5966 5966 5967 5967 5967 5967 5967 5967 5968 5968 5968 5969 5969 5969 5969 5969 5969 5969 5969 5969 5969 5969 5969 5969 5968 5968 5967 5967 5967 5967 5966 5966 5966 5965 5965 5965 5966 5966 5966 5966 5966 5966 5965 5965 5964 5963 5962 5962
5928 5930 5932 5933 5934 5935 5936 5937 5939 5940 5942 5943 5944 5945 5946 5948 5949 5950 5951 5952 5953 5953 5954 5955 5957 5958 5959 5959 5960 5960 5961 5961 5961 5962 5963 5963 5964 5965 5965 5965 5966 5966 5966 5966 5966 5966 5966 5966 5966 5967 5967 5967 5968 5968 5968 5968 5968 5968 5968 5968 5968 5967 5967 5967 5967 5967 5966 5966 5966 5965 5965 5965 5965 5965 5965 5965 5965 5965 5965 5965 5964 5963 5962 5961 5960
5925 5927 5929 5930 5931 5933 5934 5935 5936 5938 5939 5941 5942 5943 5944 5945 5946 5948 5949 5950 5950 5951 5952 5953 5954 5956 5957 5957 5958 5958 5958 5959 5960 5960 5961 5962 5963 5963 5963 5964 5964 5964 5964 5964 5964 5964 5964 5964 5964 5965 5965 5965 5966 5966 5967 5967 5967 5967 5967 5966 5966 5966 5966 5966 5966 5966 5966 5966 5965 5965 5964 5964 5964 5964 5964 5964 5964 5964 5964 5963 5963 5962 5961 5960 5959
5922 5924 5925 5926 5928 5929 5931 5932 5934 5935 5937 5938 5939 5940 5942 5943 5944 5945 5947 5948 5948 5949 5950 5950 5952 5953 5954 5954 5955 5955 5955 5956 5957 5958 5959 5960 5960 5961 5961 5962 5962 5962 5963 5963 5963 5963 5962 5962 5962 5962 5962 5963 5963 5964 5964 5965 5965 5965 5965 5964 5964 5964 5964 5964 5964 5964 5965 5965 5964 5964 5964 5963 5962 5962 5962 5962 5962 5962 5961 5961 5961 5960 5959 5959 5958
5919 5921 5922 5924 5925 5926 5928 5929 5931 5932 5933 5935 5936 5938 5939 5940 5942 5943 5944 5945 5946 5947 5947 5948 5949 5950 5950 5951 5952 5951 5951 5953 5955 5956 5957 5957 5958 5958 5959 5959 5960 5960 5961 5961 5961 5961 5961 5961 5960 5960 5960 5961 5961 5961 5962 5962 5963 5963 5963 5962 5962 5962 5962 5961 5961 5962 5962 5962 5962 5961 5961 5961 5961 5960 5959 5959 5959 5959 5958 5958 5957 5957 5956 5956 5956
5915 5917 5920 5921 5922 5923 5925 5927 5928 5929 5930 5932 5933 5935 5937 5938 5939 5941 5942 5943 5944 5945 5945 5945 5946 5947 5948 5948 5948 5948 5949 5951 5952 5952 5954 5955 5955 5955 5956 5957 5957 5958 5958 5959 5959 5959 5959 5959 5959 5958 5958 5959 5959 5959 5959 5959 5960 5960 5960 5960 5960 5960 5959 5959 5959 5959 5959 5959 5959 5958 5958 5958 5958 5957 5956 5956 5956 5955 5955 5954 5954 5953 5953 5953 5952
5911 5914 5917 5918 5919 5921 5923 5924 5925 5927 5928 5930 5932 5933 5935 5936 5937 5938 5940 5941 5942 5942 5942 5942 5943 5944 5945 5945 5945 5947 5948 5948 5949 5949 5950 5951 5952 5953 5953 5954 5954 5955 5955 5956 5956 5957 5957 5957 5957 5956 5956 5957 5957 5957 5957 5957 5957 5957 5957 5957 5957 5957 5957 5957 5957 5956 5956 5956 5956 5956 5955 5955 5955 5954 5954 5953 5953 5952 5952 5951 5951 5950 5950 5950 5949
5907 5910 5912 5913 5914 5917 5918 5919 5921 5923 5925 5927 5930 5931 5932 5933 5934 5936 5937 5937 5938 5939 5940 5941 5941 5941 5942 5942 5942 5944 5945 5945 5945 5946 5947 5948 5949 5950 5950 5951 5951 5952 5952 5952 5952 5953 5954 5954 5955 5954 5954 5955 5955 5955 5954 5954 5954 5955 5954 5954 5954 5954 5954 5954 5954 5954 5955 5954 5954 5954 5953 5952 5952 5952 5951 5950 5950 5950 5950 5949 5948 5948 5948 5948 5947
5903 5905 5907 5908 5909 5912 5913 5914 5916 5918 5921 5924 5926 5927 5927 5928 5930 5932 5932 5933 5934 5936 5938 5939 5938 5938 5939 5939 5938 5939 5940 5942 5942 5942 5943 5944 5945 5946 5947 5948 5948 5948 5949 5949 5949 5949 5950 5951 5951 5951 5951 5951 5951 5951 5952 5951 5951 5952 5952 5952 5951 5951 5951 5950 5951 5952 5952 5952 5952 5952 5951 5950 5949 5949 5948 5948 5947 5947 5948 5947 5945 5945 5945 5945 5944
5898 5900 5902 5904 5905 5907 5909 5910 5912 5914 5916 5919 5921 5920 5920 5922 5924 5925 5926 5928 5929 5931 5933 5935 5936 5936 5936 5936 5935 5934 5935 5937 5938 5939 5940 5941 5941 5943 5943 5944 5944 5944 5945 5945 5945 5946 5947 5947 5947 5947 5948 5947 5947 5947 5948 5948 5949 5949 5949 5949 5949 5948 5948 5947 5947 5948 5949 5949 5949 5949 5948 5948 5947 5946 5945 5944 5944 5944 5945 5945 5943 5942 5942 5942 5942
5893 5896 5898 5899 5900 5902 5905 5907 5908 5909 5909 5912 5914 5915 5916 5918 5918 5919 5922 5924 5925 5927 5929 5931 5932 5932 5932 5933 5932 5930 5930 5932 5934 5935 5936 5937 5938 5938 5939 5940 5940 5940 5940 5941 5941 5943 5943 5943 5942 5944 5945 5944 5943 5944 5944 5944 5945 5945 5945 5945 5945 5945 5945 5944 5944 5944 5945 5945 5945 5945 5945 5944 5944 5943 5942 5941 5940 5940 5941 5942 5940 5939 5940 5940 5939
5891 5893 5895 5896 5896 5898 5901 5902 5902 5904 5905 5908 5910 5911 5912 5914 5915 5916 5918 5920 5921 5923 5925 5925 5926 5926 5926 5928 5929 5927 5926 5928 5929 5931 5932 5933 5934 5934 5935 5936 5936 5936 5936 5936 5937 5939 5939 5939 5938 5939 5940 5940 5939 5940 5940 5940 5940 5940 5941 5941 5941 5941 5941 5940 5940 5941 5941 5941 5941 5941 5941 5940 5940 5940 5939 5938 5937 5936 5937 5937 5937 5936 5936 5936 5936
5889 5891 5891 5892 5892 5894 5896 5897 5898 5900 5903 5904 5905 5906 5907 5909 5911 5912 5914 5916 5917 5919 5920 5921 5921 5920 5921 5924 5924 5923 5923 5923 5925 5926 5927 5928 5929 5930 5931 5932 5932 5932 5932 5932 5933 5934 5934 5935 5935 5934 5934 5935 5935 5935 5935 5936 5936 5936 5936 5936 5937 5937 5936 5936 5936 5936 5937 5937 5937 5937 5937 5936 5935 5935 5935 5935 5934 5932 5932 5932 5932 5931 5932 5932 5932
5886 5887 5888 5888 5889 5890 5892 5893 5894 5896 5898 5899 5900 5901 5903 5904 5906 5907 5908 5910 5912 5913 5914 5915 5914 5914 5916 5919 5919 5918 5919 5919 5920 5921 5922 5922 5923 5925 5926 5926 5927 5928 5929 5930 5930 5930 5930 5930 5930 5929 5929 5929 5930 5930 5931 5931 5931 5931 5931 5931 5932 5932 5932 5932 5932 5931 5931 5932 5932 5932 5932 5932 5931 5931 5930 5930 5929 5928 5928 5928 5928 5927 5927 5928 5928
5882 5883 5884 5885 5886 5887 5888 5888 5889 5890 5892 5895 5897 5898 5898 5898 5899 5901 5903 5905 5906 5907 5908 5909 5909 5909 5911 5912 5913 5914 5914 5915 5916 5917 5917 5917 5918 5919 5920 5920 5921 5923 5925 5925 5925 5926 5926 5925 5925 5925 5924 5924 5925 5925 5926 5926 5926 5926 5926 5926 5926 5926 5927 5927 5927 5927 5927 5927 5927 5927 5927 5927 5926 5926 5925 5924 5923 5924 5924 5923 5923 5923 5923 5923 5923
5879 5880 5881 5882 5883 5883 5884 5885 5885 5886 5887 5889 5893 5894 5893 5892 5892 5894 5896 5899 5900 5901 5902 5903 5904 5905 5906 5908 5909 5909 5910 5911 5911 5911 5912 5912 5913 5913 5914 5914 5915 5917 5918 5919 5919 5920 5920 5920 5920 5920 5920 5920 5920 5921 5921 5921 5921 5921 5921 5921 5921 5921 5922 5922 5922 5922 5922 5922 5922 5922 5922 5921 5921 5921 5920 5919 5918 5918 5919 5918 5918 5919 5919 5919 5918
5875 5876 5877 5878 5879 5880 5881 5882 5883 5884 5884 5886 5889 5890 5890 5889 5889 5890 5890 5892 5894 5895 5897 5898 5899 5900 5901 5903 5904 5905 5905 5906 5907 5907 5907 5908 5908 5908 5909 5910 5910 5912 5913 5913 5914 5914 5914 5914 5915 5915 5915 5915 5915 5916 5916 5916 5916 5916 5916 5915 5915 5916 5916 5917 5916 5916 5917 5917 5916 5916 5916 5916 5916 5915 5915 5914 5913 5913 5913 5912 5912 5913 5914 5915 5913
5872 5873 5875 5875 5876 5877 5878 5879 5880 5882 5883 5884 5885 5886 5886 5887 5888 5888 5889 5889 5890 5891 5893 5894 5895 5896 5897 5898 5899 5900 5901 5902 5902 5903 5903 5903 5904 5904 5905 5906 5906 5907 5908 5908 5909 5909 5909 5909 5909 5909 5910 5910 5910 5911 5911 5911 5912 5912 5911 5911 5911 5911 5911 5911 5911 5911 5911 5911 5911 5911 5911 5911 5911 5910 5909 5909 5908 5907 5907 5906 5906 5906 5907 5908 5908
5870 5870 5872 5873 5873 5874 5874 5875 5877 5878 5879 5881 5881 5882 5883 5884 5885 5886 5886 5887 5888 5888 5889 5890 5892 5893 5894 5895 5896 5896 5897 5898 5899 5899 5899 5899 5900 5901 5901 5902 5903 5903 5903 5904 5904 5904 5904 5904 5904 5905 5905 5905 5905 5906 5906 5907 5906 5907 5907 5906 5906 5906 5906 5906 5906 5906 5906 5905 5905 5905 5905 5905 5905 5905 5904 5903 5902 5902 5901 5901 5901 5900 5900 5901 5902
5867 5867 5868 5870 5870 5871 5871 5872 5873 5875 5876 5877 5878 5878 5879 5880 5881 5882 5883 5883 5884 5885 5885 5886 5888 5889 5890 5891 5892 5893 5894 5895 5895 5895 5895 5896 5897 5897 5897 5898 5898 5899 5899 5899 5899 5899 5900 5900 5900 5900 5900 5900 5900 5901 5901 5902 5901 5901 5901 5901 5900 5901 5902 5901 5901 5901 5901 5900 5900 5900 5900 5900 5899 5899 5898 5898 5897 5896 5896 5895 5895 5894 5894 5894 5895
5864 5864 5865 5866 5867 5868 5868 5869 5870 5871 5872 5873 5874 5875 5876 5877 5878 5879 5879 5880 5881 5881 5882 5883 5884 5885 5886 5887 5888 5889 5890 5891 5891 5891 5892 5892 5893 5893 5893 5893 5894 5894 5895 5895 5895 5895 5895 5895 5895 5895 5895 5895 5895 5895 5896 5896 5895 5895 5895 5895 5895 5896 5897 5896 5896 5896 5895 5895 5895 5895 5894 5894 5894 5893 5893 5892 5891 5890 5890 5889 5889 5888 5888 5888 5889
5859 5860 5861 5862 5863 5864 5864 5865 5865 5866 5867 5869 5870 5871 5872 5873 5874 5875 5875 5876 5877 5878 5878 5879 5880 5880 5882 5883 5883 5884 5886 5887 5887 5887 5888 5888 5888 5889 5889 5889 5890 5890 5890 5890 5890 5890 5890 5891 5891 5891 5890 5890 5890 5890 5890 5890 5889 5889 5889 5889 5889 5889 5890 5890 5890 5890 5890 5889 5889 5889 5889 5889 5888 5887 5887 5886 5885 5885 5884 5883 5883 5882 5882 5881 5881
5855 5856 5857 5858 5859 5860 5860 5861 5861 5862 5863 5864 5865 5866 5867 5868 5869 5870 5871 5872 5872 5873 5874 5874 5875 5875 5877 5878 5878 5879 5881 5882 5882 5883 5883 5884 5884 5884 5885 5885 5885 5885 5885 5885 5885 5885 5885 5885 5885 5885 5884 5884 5884 5884 5883 5883 5883 5883 5883 5883 5882 5883 5883 5883 5883 5883 5883 5883 5883 5882 5882 5882 5882 5881 5881 5880 5880 5879 5878 5877 5876 5876 5875 5875 5874
5849 5850 5851 5852 5854 5855 5856 5857 5857 5858 5859 5859 5860 5861 5862 5863 5864 5865 5865 5866 5867 5868 5869 5869 5870 5870 5871 5872 5873 5873 5875 5876 5877 5878 5878 5878 5879 5879 5879 5879 5879 5879 5879 5879 5879 5879 5879 5879 5879 5879 5879 5878 5878 5878 5877 5877 5877 5877 5877 5876 5876 5876 5876 5876 5876 5876 5876 5876 5875 5875 5875 5875 5874 5874 5874 5873 5873 5872 5871 5870 5869 5868 5868 5867 5867
5844 5845 5846 5847 5848 5849 5850 5851 5852 5853 5853 5854 5855 5856 5856 5857 5859 5859 5860 5861 5862 5863 5864 5864 5865 5865 5866 5867 5867 5867 5868 5870 5871 5871 5872 5872 5873 5873 5873 5873 5873 5873 5873 5873 5873 5873 5873 5873 5873 5873 5872 5872 5872 5872 5871 5871 5871 5871 5870 5870 5870 5869 5869 5869 5868 5868 5868 5867 5867 5867 5866 5866 5866 5866 5865 5865 5865 5864 5863 5862 5861 5860 5860 5859 5859
5838 5839 5840 5841 5842 5843 5844 5845 5846 5847 5847 5848 5849 5850 5851 5852 5853 5854 5854 5855 5856 5856 5857 5858 5859 5860 5860 5861 5862 5862 5862 5863 5864 5865 5865 5866 5866 5866 5867 5867 5867 5867 5867 5867 5867 5867 5867 5867 5866 5866 5866 5866 5865 5865 5865 5865 5864 5864 5864 5863 5863 5862 5862 5861 5861 5860 5860 5859 5859 5858 5858 5858 5857 5857 5856 5856 5855 5855 5855 5854 5853 5852 5851 5851 5850
5831 5833 5834 5835 5836 5837 5837 5838 5839 5840 5841 5842 5842 5843 5844 5845 5846 5847 5848 5849 5850 5850 5851 5851 5852 5853 5853 5854 5855 5856 5856 5856 5856 5857 5858 5858 5859 5859 5859 5860 5860 5860 5860 5860 5860 5860 5860 5860 5860 5860 5859 5859 5859 5858 5858 5858 5857 5857 5856 5856 5856 5855 5855 5854 5853 5853 5852 5851 5851 5850 5850 5849 5849 5848 5848 5847 5847 5846 5846 5845 5844 5844 5843 5842 5841
5824 5825 5826 5828 5829 5830 5831 5832 5833 5834 5835 5836 5836 5837 5838 5839 5840 5841 5841 5842 5843 5844 5844 5844 5844 5845 5846 5847 5848 5848 5849 5849 5849 5850 5850 5850 5851 5852 5852 5852 5852 5853 5853 5853 5853 5853 5853 5853 5852 5852 5852 5852 5851 5851 5850 5850 5850 5849 5849 5848 5848 5847 5847 5846 5846 5845 5844 5843 5843 5842 5841 5841 5840 5839 5839 5838 5838 5837 5837 5836 5835 5835 5834 5833 5833
5817 5818 5819 5820 5821 5822 5824 5825 5826 5827 5828 5829 5830 5831 5832 5833 5833 5834 5835 5836 5836 5837 5838 5839 5839 5838 5838 5839 5840 5840 5841 5842 5842 5843 5843 5843 5843 5844 5844 5844 5844 5845 5845 5845 5845 5845 5845 5845 5844 5844 5844 5844 5843 5843 5843 5842 5842 5841 5841 5841 5840 5839 5838 5838 5838 5837 5836 5835 5834 5834 5833 5832 5831 5830 5829 5829 5828 5827 5827 5826 5825 5825 5824 5823 5823
5810 5811 5812 5813 5814 5816 5817 5818 5819 5820 5821 5822 5823 5824 5825 5826 5827 5828 5828 5829 5830 5830 5830 5832 5833 5833 5832 5832 5833 5833 5833 5833 5834 5835 5836 5836 5836 5836 5836 5836 5836 5836 5837 5837 5837 5837 5837 5837 5836 5836 5835 5835 5835 5834 5834 5833 5833 5833 5832 5832 5831 5830 5830 5829 5828 5828 5827 5826 5825 5825 5824 5823 5822 5821 5820 5819 5819 5818 5817 5816 5815 5814 5813 5812 5812
5804 5805 5806 5807 5808 5809 5810 5811 5812 5813 5814 5815 5815 5816 5817 5818 5819 5820 5821 5822 5823 5823 5823 5824 5825 5826 5826 5827 5827 5826 5826 5826 5826 5827 5828 5828 5828 5829 5829 5828 5828 5828 5828 5829 5829 5829 5829 5828 5828 5827 5827 5827 5826 5826 5825 5824 5824 5823 5823 5823 5822 5821 5820 5820 5819 5818 5818 5817 5816 5815 5814 5813 5812 5811 5810 5809 5808 5807 5806 5806 5805 5804 5803 5802 5801
5797 5798 5799 5800 5801 5802 5803 5804 5805 5806 5807 5807 5808 5809 5810 5811 5812 5812 5813 5814 5815 5816 5816 5817 5817 5818 5820 5821 5820 5819 5819 5819 5820 5820 5820 5820 5820 5821 5820 5820 5820 5820 5821 5821 5821 5820 5820 5820 5819 5819 5818 5817 5817 5816 5816 5815 5814 5814 5813 5813 5812 5811 5810 5810 5809 5808 5808 5807 5806 5805 5804 5803 5802 5801 5799 5798 5797 5796 5795 5794 5793 5792 5791 5791 5790
5790 5791 5792 5793 5794 5795 5796 5797 5798 5799 5800 5800 5801 5802 5803 5804 5804 5805 5806 5806 5807 5808 5808 5809 5810 5811 5813 5814 5812 5811 5811 5812 5812 5812 5813 5813 5813 5813 5813 5812 5812 5812 5813 5813 5812 5812 5812 5811 5811 5810 5810 5809 5808 5807 5806 5805 5804 5804 5803 5802 5801 5800 5799 5798 5798 5797 5796 5796 5795 5795 5794 5793 5792 5790 5789 5787 5786 5785 5783 5782 5781 5780 5779 5778 5777
5783 5784 5785 5786 5787 5788 5789 5790 5791 5791 5792 5793 5794 5795 5796 5796 5797 5798 5798 5799 5799 5800 5801 5801 5801 5803 5805 5806 5804 5803 5804 5804 5804 5804 5804 5804 5805 5805 5804 5804 5804 5805 5805 5804 5803 5803 5803 5802 5801 5801 5801 5800 5799 5798 5797 5796 5795 5794 5793 5792 5791 5790 5788 5788 5787 5786 5785 5784 5784 5783 5781 5780 5779 5778 5777 5776 5774 5773 5772 5770 5769 5768 5767 5765 5764
5775 5776 5777 5778 5780 5781 5782 5783 5783 5784 5785 5785 5786 5787 5788 5788 5789 5790 5791 5791 5791 5792 5793 5793 5793 5795 5798 5798 5796 5795 5796 5796 5796 5796 5796 5796 5796 5796 5795 5795 5795 5796 5796 5796 5795 5794 5794 5793 5792 5792 5791 5790 5790 5789 5788 5787 5786 5785 5784 5783 5781 5780 5779 5777 5776 5775 5774 5773 5772 5770 5769 5768 5766 5765 5764 5763 5761 5760 5759 5758 5756 5755 5754 5752 5751
5766 5768 5769 5770 5772 5773 5774 5775 5776 5777 5777 5778 5778 5779 5779 5780 5781 5782 5783 5783 5784 5784 5785 5785 5785 5787 5789 5790 5789 5788 5787 5788 5788 5788 5788 5788 5788 5787 5787 5787 5787 5787 5787 5788 5787 5786 5785 5784 5783 5782 5782 5781 5780 5779 5778 5777 5776 5775 5774 5773 5772 5771 5769 5768 5767 5765 5763 5762 5760 5758 5757 5756 5755 5753 5751 5749 5748 5746 5745 5744 5743 5741 5740 5739 5737
5758 5759 5761 5762 5764 5765 5766 5767 5768 5769 5770 5770 5771 5772 5772 5772 5773 5774 5775 5775 5776 5776 5776 5777 5777 5778 5780 5781 5781 5781 5780 5779 5779 5779 5779 5779 5779 5779 5779 5778 5778 5777 5778 5778 5778 5777 5776 5775 5774 5773 5772 5771 5770 5769 5768 5767 5765 5764 5763 5763 5761 5760 5759 5758 5757 5755 5752 5750 5749 5748 5747 5745 5743 5741 5739 5737 5735 5734 5732 5731 5729 5728 5726 5725 5723
5748 5750 5752 5753 5755 5757 5758 5759 5760 5761 5762 5762 5763 5764 5765 5765 5765 5766 5767 5767 5768 5768 5768 5769 5769 5770 5771 5772 5772 5773 5772 5772 5771 5771 5771 5771 5770 5770 5770 5769 5769 5768 5768 5768 5767 5767 5766 5765 5764 5763 5762 5761 5760 5759 5758 5756 5755 5753 5752 5751 5750 5749 5749 5748 5746 5743 5741 5739 5738 5737 5736 5734 5732 5730 5728 5726 5724 5722 5720 5718 5716 5714 5713 5711 5709
5739 5741 5743 5744 5746 5748 5749 5751 5752 5752 5753 5754 5755 5756 5757 5758 5758 5759 5759 5760 5760 5761 5761 5761 5761 5762 5762 5763 5763 5763 5764 5764 5763 5763 5763 5762 5761 5761 5761 5760 5760 5759 5758 5758 5757 5757 5756 5755 5754 5753 5752 5751 5750 5749 5747 5746 5744 5743 5741 5740 5739 5739 5738 5735 5733 5731 5730 5728 5726 5725 5724 5722 5719 5717 5715 5713 5711 5709 5707 5706 5704 5701 5699 5697 5696
5730 5732 5734 5736 5738 5739 5741 5742 5743 5744 5744 5746 5747 5748 5749 5750 5751 5751 5751 5752 5752 5752 5752 5753 5753 5754 5754 5754 5755 5755 5755 5755 5754 5754 5754 5754 5753 5753 5752 5752 5751 5750 5749 5748 5748 5747 5746 5745 5744 5743 5742 5740 5739 5738 5736 5735 5734 5732 5730 5730 5730 5729 5726 5723 5721 5720 5719 5716 5714 5713 5712 5710 5707 5705 5703 5700 5698 5695 5693 5691 5689 5687 5685 5683 5681
5721 5723 5726 5728 5730 5731 5732 5733 5734 5734 5735 5737 5738 5739 5740 5741 5742 5743 5743 5744 5744 5744 5744 5744 5744 5745 5745 5746 5746 5745 5745 5745 5745 5745 5745 5744 5744 5743 5743 5743 5742 5741 5740 5739 5738 5736 5736 5735 5734 5733 5732 5731 5729 5728 5726 5725 5724 5721 5720 5720 5720 5717 5714 5712 5711 5710 5708 5706 5704 5702 5700 5698 5696 5694 5691 5688 5685 5683 5680 5678 5675 5673 5671 5669 5667
5713 5715 5717 5719 5721 5722 5724 5725 5725 5726 5727 5729 5730 5731 5732 5733 5734 5734 5735 5736 5736 5736 5736 5736 5736 5736 5736 5737 5737 5736 5736 5736 5736 5735 5735 5734 5734 5733 5733 5732 5732 5731 5730 5729 5728 5727 5726 5725 5724 5723 5722 5721 5719 5718 5717 5715 5713 5712 5710 5710 5709 5706 5704 5703 5701 5699 5697 5695 5693 5690 5688 5685 5683 5681 5678 5676 5673 5670 5667 5665 5662 5660 5657 5655 5653
5705 5707 5709 5711 5712 5714 5715 5716 5717 5718 5720 5721 5722 5723 5724 5724 5725 5726 5727 5727 5727 5728 5728 5728 5728 5728 5728 5728 5728 5728 5727 5727 5726 5726 5725 5725 5724 5724 5723 5722 5722 5721 5720 5719 5718 5717 5717 5716 5715 5714 5713 5711 5710 5708 5707 5705 5704 5703 5701 5698 5697 5696 5694 5691 5689 5687 5685 5683 5680 5678 5675 5672 5670 5667 5664 5661 5658 5655 5653 5650 5647 5645 5642 5640 5637
5697 5699 5701 5703 5705 5706 5707 5708 5709 5711 5712 5713 5714 5715 5716 5716 5717 5718 5719 5719 5719 5719 5719 5720 5720 5720 5720 5720 5719 5719 5719 5718 5718 5717 5717 5716 5715 5715 5714 5713 5712 5712 5711 5710 5709 5708 5707 5706 5705 5705 5703 5702 5701 5699 5697 5695 5694 5693 5691 5688 5686 5685 5683 5679 5676 5675 5673 5670 5667 5664 5661 5658 5656 5653 5650 5646 5643 5640 5637 5635 5632 5629 5626 5624 5621